Location: Unspecified
(51.5147°N, 7.4673°E)
Time: 03:48:29
(UTC+01:00)

Vanguard 1 Rocket - Pass Details

Date: 17 February 2026
Orbit: 653 x 4214 km, 34.3° (Epoch: 5 March)

Event Time Altitude Azimuth Distance (km) Brightness Sun altitude
Rises 11:47:17 0° 175° (S) 4,206 12.1 25.4°
Reaches altitude 10° 11:53:16 10° 140° (SE) 4,010 11.9 25.6°
Maximum altitude 11:55:39 11° 127° (SE) 4,240 11.7 25.7°
Drops below altitude 10° 11:58:19 10° 115° (ESE) 4,651 11.6 25.8°
Sets 12:08:07 0° 86° (E) 6,783 11.9 26.1°
